Weather History for Winner, SD

Change the Weather History Date:

Thursday, April 4, 2013

  Actual Average Record
Temperature  
Mean Temperature 42 °F 44 °F  
Max Temperature 55 °F 56 °F 65 °F (2012)
Min Temperature 28 °F 32 °F 26 °F (2009)
Degree Days  
Heating Degree Days 23 21  
Month to date heating degree days 98 87  
Since 1 July heating degree days 5773 5972  
Cooling Degree Days 0 0  
Month to date cooling degree days 0 0  
Year to date cooling degree days 0 0  
Moisture  
Dew Point 24 °F    
Average Humidity 51    
Maximum Humidity 78    
Minimum Humidity 24    
Precipitation  
Precipitation 0.00 in 0.06 in 0.43 in (2009)
Month to date precipitation 0.00 0.21  
Year to date precipitation 0.60 2.35  
Sea Level Pressure  
Sea Level Pressure 30.16 in    
Wind  
Wind Speed 11 mph (NNE)    
Max Wind Speed 18 mph    
Max Gust Speed 22 mph    
Visibility 10 miles    
Events      
T = Trace of Precipitation, MM = Missing Value Source: NWS Daily Summary

Daily Weather History Graph

Daily Weather History Graph

Search for Another Location

Airport:

Trip Planner

Search our weather history database for the weather conditions in past years. The results will help you decide how hot, cold, wet, or windy it might be!

Date:

Astronomy

Apr. 04, 2013 Rise Set
Actual Time 7:15 AM CDT 8:09 PM CDT
Civil Twilight 6:46 AM CDT 8:38 PM CDT
Nautical Twilight 6:11 AM CDT 9:13 PM CDT
Astronomical Twilight 5:35 AM CDT 9:49 PM CDT
Moon 3:53 AM CDT (4/4) 2:20 PM CDT (4/4)
Length of Visible Light 13h 52m
Length of Day
12h 54m
Waning Crescent, 33% of the Moon is Illuminated
Apr 4
Waning Crescent
Apr 10
New
Apr 18
First Quarter
Apr 25
Full
May 2
Last Quarter

Hourly Weather History & Observations

Time (CDT) Temp. Windchill Dew Point Humidity Pressure Visibility Wind Dir Wind Speed Gust Speed Precip Events Conditions
12:53 AM 48.0 °F - 33.1 °F 56% 30.06 in 10.0 mi NW 13.8 mph - N/A   Clear
1:53 AM 43.0 °F 35.1 °F 30.9 °F 62% 30.08 in 10.0 mi NNW 17.3 mph - N/A   Clear
2:53 AM 39.9 °F 32.5 °F 30.9 °F 70% 30.11 in 10.0 mi NW 12.7 mph - N/A   Clear
3:53 AM 37.9 °F 30.0 °F 30.0 °F 73% 30.12 in 10.0 mi NNW 12.7 mph - N/A   Mostly Cloudy
4:53 AM 35.1 °F 25.5 °F 27.0 °F 72% 30.14 in 10.0 mi NW 15.0 mph - N/A   Clear
5:53 AM 34.0 °F 25.5 °F 27.0 °F 75% 30.15 in 10.0 mi NNW 11.5 mph - N/A   Clear
6:53 AM 30.0 °F 20.5 °F 25.0 °F 82% 30.19 in 10.0 mi NW 11.5 mph - N/A   Clear
7:53 AM 30.0 °F 24.1 °F 24.1 °F 79% 30.20 in 10.0 mi NW 5.8 mph - N/A   Clear
8:53 AM 35.1 °F 26.9 °F 25.0 °F 67% 30.22 in 10.0 mi NNW 11.5 mph - N/A   Clear
9:53 AM 37.9 °F 30.0 °F 25.0 °F 60% 30.23 in 10.0 mi North 12.7 mph - N/A   Mostly Cloudy
10:53 AM 41.0 °F 35.8 °F 25.0 °F 53% 30.22 in 10.0 mi North 8.1 mph - N/A   Mostly Cloudy
11:53 AM 45.0 °F 40.6 °F 24.1 °F 44% 30.21 in 10.0 mi NE 8.1 mph - N/A   Clear
12:53 PM 48.9 °F - 21.0 °F 33% 30.20 in 10.0 mi North 8.1 mph - N/A   Mostly Cloudy
1:53 PM 51.1 °F - 21.0 °F 31% 30.19 in 10.0 mi NNE 5.8 mph - N/A   Clear
2:53 PM 53.1 °F - 19.9 °F 27% 30.17 in 10.0 mi North 9.2 mph - N/A   Partly Cloudy
3:53 PM 54.0 °F - 21.9 °F 29% 30.16 in 10.0 mi ENE 10.4 mph 20.7 mph N/A   Clear
4:53 PM 54.0 °F - 17.1 °F 23% 30.15 in 10.0 mi ENE 10.4 mph 20.7 mph N/A   Clear
5:53 PM 54.0 °F - 19.0 °F 25% 30.15 in 10.0 mi East 10.4 mph - N/A   Clear
6:53 PM 51.1 °F - 19.9 °F 29% 30.15 in 10.0 mi ENE 16.1 mph - N/A   Clear
7:53 PM 46.9 °F - 19.0 °F 33% 30.17 in 10.0 mi ENE 12.7 mph - N/A   Clear
8:53 PM 39.9 °F 33.9 °F 19.0 °F 43% 30.16 in 10.0 mi ESE 9.2 mph - N/A   Clear
9:53 PM 39.0 °F 31.8 °F 19.0 °F 45% 30.16 in 10.0 mi ESE 11.5 mph - N/A   Clear
10:53 PM 36.0 °F 29.6 °F 19.9 °F 52% 30.15 in 10.0 mi ESE 8.1 mph - N/A   Clear
11:53 PM 37.0 °F 29.8 °F 23.0 °F 57% 30.14 in 10.0 mi East 10.4 mph - N/A   Clear